Huntington, WV

9:08 PM EDT on April 24, 2017 (GMT -0400)
Tri-State / Ferguson

Weather History for KHTS - May, 2013

Change the Weather History Date:

Saturday, May 11, 2013

  Actual Average Record
Temperature  
Mean Temperature 59 °F 63 °F  
Max Temperature 65 °F 74 °F 94 °F (1936)
Min Temperature 52 °F 51 °F 30 °F (1947)
Degree Days  
Heating Degree Days 6 4  
Month to date heating degree days 29 55  
Since 1 July heating degree days 4462 4443  
Cooling Degree Days 0 2  
Month to date cooling degree days 9 16  
Year to date cooling degree days 52 48  
Growing Degree Days 9 (Base 50)    
Moisture  
Dew Point 56 °F    
Average Humidity 83    
Maximum Humidity 93    
Minimum Humidity 72    
Precipitation  
Precipitation 0.02 in 0.15 in 1.82 in (1925)
Month to date precipitation 1.01 1.59  
Year to date precipitation 13.01 14.97  
Snow  
Snow 0.00 in - - ()
Month to date snowfall 0.0  
Since 1 September snowfall 12.4  
Snow Depth 0.00 in    
Sea Level Pressure  
Sea Level Pressure 29.87 in    
Wind  
Wind Speed 7 mph (WSW)    
Max Wind Speed 14 mph    
Max Gust Speed 20 mph    
Visibility 9 miles    
Events Rain    
T = Trace of Precipitation, MM = Missing Value Source: NWS Daily Summary

Daily Weather History Graph

Daily Weather History Graph

Search for Another Location

Airport or City:

Trip Planner

Search our weather history database for the weather conditions in past years. The results will help you decide how hot, cold, wet, or windy it might be!

Date:

Astronomy

May. 11, 2013 Rise Set
Actual Time 6:22 AM EDT 8:31 PM EDT
Civil Twilight 5:53 AM EDT 9:00 PM EDT
Nautical Twilight 5:17 AM EDT 9:36 PM EDT
Astronomical Twilight 4:38 AM EDT 10:16 PM EDT
Moon 7:29 AM EDT (5/11) 10:10 PM EDT (5/11)
Length of Visible Light 15h 07m
Length of Day
14h 08m
Waxing Crescent, 3% of the Moon is Illuminated
May 11
Waxing Crescent
May 18
First Quarter
May 25
Full
May 31
Last Quarter
Jun 8
New

Hourly Weather History & Observations

Time (EDT) Temp. Dew Point Humidity Pressure Visibility Wind Dir Wind Speed Gust Speed Precip Events Conditions
12:51 AM 63.0 °F 61.0 °F 93% 29.87 in 5.0 mi SW 6.9 mph - 0.00 in Rain Light Rain
12:58 AM 62.6 °F 60.8 °F 94% 29.89 in 9.0 mi SW 6.9 mph - 0.01 in Rain Light Rain
1:23 AM 62.6 °F 60.8 °F 94% 29.89 in 9.0 mi SW 4.6 mph - 0.01 in Rain Light Rain
1:49 AM 62.6 °F 60.8 °F 94% 29.88 in 8.0 mi SSW 4.6 mph - 0.01 in   Overcast
1:51 AM 62.1 °F 61.0 °F 96% 29.86 in 8.0 mi SSW 4.6 mph - 0.01 in   Overcast
2:51 AM 62.1 °F 61.0 °F 96% 29.85 in 8.0 mi SSW 4.6 mph - N/A   Overcast
3:51 AM 62.1 °F 61.0 °F 96% 29.84 in 10.0 mi SW 4.6 mph - N/A   Overcast
4:51 AM 62.1 °F 60.1 °F 93% 29.84 in 10.0 mi SSW 4.6 mph - N/A   Overcast
5:20 AM 62.6 °F 60.8 °F 94% 29.84 in 8.0 mi SSW 5.8 mph - 0.00 in Rain Light Rain
5:48 AM 62.6 °F 60.8 °F 94% 29.84 in 8.0 mi SSW 5.8 mph - 0.01 in Rain Light Rain
5:51 AM 62.1 °F 60.1 °F 93% 29.82 in 8.0 mi SSW 5.8 mph - 0.01 in Rain Light Rain
6:51 AM 61.0 °F 60.1 °F 97% 29.83 in 7.0 mi SSW 4.6 mph - 0.01 in   Mostly Cloudy
7:11 AM 62.6 °F 60.8 °F 94% 29.85 in 6.0 mi SSW 5.8 mph - N/A   Overcast
7:21 AM 62.6 °F 60.8 °F 94% 29.86 in 7.0 mi SSW 4.6 mph - N/A   Overcast
7:51 AM 62.1 °F 60.1 °F 93% 29.84 in 6.0 mi SW 5.8 mph - N/A   Overcast
8:51 AM 61.0 °F 57.9 °F 90% 29.86 in 8.0 mi NW 8.1 mph - 0.00 in   Overcast
9:51 AM 62.1 °F 57.0 °F 84% 29.87 in 10.0 mi West 6.9 mph - N/A   Overcast
10:51 AM 63.0 °F 57.0 °F 81% 29.87 in 10.0 mi West 6.9 mph - N/A   Overcast
11:43 AM 60.8 °F 55.4 °F 82% 29.88 in 8.0 mi West 6.9 mph - N/A   Overcast
11:51 AM 62.1 °F 55.9 °F 80% 29.88 in 8.0 mi WSW 8.1 mph - N/A   Overcast
12:51 PM 60.1 °F 54.0 °F 80% 29.89 in 9.0 mi West 9.2 mph - N/A   Overcast
1:51 PM 59.0 °F 54.0 °F 83% 29.88 in 8.0 mi West 8.1 mph - N/A   Overcast
2:51 PM 63.0 °F 54.0 °F 72% 29.87 in 10.0 mi WSW 12.7 mph 19.6 mph N/A   Overcast
3:51 PM 62.1 °F 53.1 °F 72% 29.87 in 10.0 mi West 8.1 mph - N/A   Overcast
4:51 PM 62.1 °F 53.1 °F 72% 29.86 in 10.0 mi West 8.1 mph - N/A   Overcast
5:51 PM 61.0 °F 52.0 °F 72% 29.88 in 10.0 mi West 6.9 mph - N/A   Overcast
6:02 PM 60.8 °F 51.8 °F 72% 29.89 in 10.0 mi WNW 5.8 mph 16.1 mph N/A   Overcast
6:18 PM 60.8 °F 51.8 °F 72% 29.89 in 10.0 mi West 8.1 mph - N/A   Overcast
6:47 PM 60.8 °F 51.8 °F 72% 29.89 in 10.0 mi WNW 5.8 mph 16.1 mph N/A   Overcast
6:51 PM 59.0 °F 51.1 °F 75% 29.88 in 10.0 mi WNW 9.2 mph - N/A   Overcast
7:51 PM 57.9 °F 50.0 °F 75% 29.89 in 10.0 mi WNW 8.1 mph - N/A   Overcast
8:51 PM 55.9 °F 48.9 °F 77% 29.91 in 10.0 mi West 6.9 mph - N/A   Mostly Cloudy
9:51 PM 54.0 °F 48.0 °F 80% 29.93 in 10.0 mi West 4.6 mph - N/A   Clear
10:51 PM 54.0 °F 48.0 °F 80% 29.94 in 10.0 mi SSW 4.6 mph - N/A   Overcast
11:51 PM 53.1 °F 48.9 °F 86% 29.93 in 10.0 mi SSW 3.5 mph - N/A   Overcast